User: anonymous   Login
Location: Unspecified
(0.0000°N, 0.0000°E)
Time: 16:14:29
(UTC+01:00)
Language:

JASON 3 - Orbit

View from above orbital plane
View from above orbital plane
View from above satellite
View from above satellite

Ground track
Ground track

The orbit data is extracted from the following two-line orbital elements,

1 41240U 16002A   19078.62343089 -.00000067 +00000-0 -24400-4 0  9999
2 41240 066.0395 231.9325 0007483 274.2010 085.8150 12.80931231148173
Epoch (UTC): 19 March 2019 14:57:44
Eccentricity: 0.0007483
inclination: 66.0395°
perigee height: 1332 km
apogee height: 1343 km
right ascension of ascending node: 231.9325°
argument of perigee: 274.2010°
revolutions per day: 12.80931231
mean anomaly at epoch: 85.8150°
orbit number at epoch: 14817

The dashed part of the orbit path shows where the satellite is in the earth's shadow,  

DLR